DUPLEX

Last updated on Fri Sep 04 2026 00:02:05 GMT+0000 (Coordinated Universal Time)

1 66906U 98067XS 26246.31554735 .00036045 00000+0 31527-3 0 9998 2 66906 51.6245 253.2234 0004389 86.8444 273.3054 15.68542548 42896
UTC large
Height (km)
Speed (km/s)
/
Latitude / Longitude
Inclination (degrees)
Orbital Period (minutes)
Azimuth
Elevation
Range (km)
Doppler Factor

Next 0 passes for location: London (51.5072 / 0.1276)

No passes found over London.
DUPLEX